CW6902 Weather Reports


Display with metric or nautical units.
time (UTC)temp
F
wind
direction
speed
MPH
gust
MPH
rain 1hr
in
rain 24hr
in
rain mn
in
humidity
%
barometer
mb
20260508002759 77 76 1.0 8.0 0.00 0.00 0.00 66 1012.7
20260508002659 77 77 2.0 8.0 0.00 0.00 0.00 66 1012.7
20260508002559 77 65 0.0 8.0 0.00 0.00 0.00 66 1012.7
20260508002459 77 65 0.0 8.0 0.00 0.00 0.00 66 1012.7
20260508002400 77 65 4.0 8.0 0.00 0.00 0.00 66 1012.7
20260508002259 77 72 2.0 8.0 0.00 0.00 0.00 66 1012.7
20260508002200 78 72 2.0 8.0 0.00 0.00 0.00 66 1012.7
20260508002057 78 56 0.0 5.0 0.00 0.00 0.00 66 1012.7
20260508002001 78 56 2.0 5.0 0.00 0.00 0.00 66 1012.7
20260508001859 78 56 3.0 5.0 0.00 0.00 0.00 66 1012.7
20260508001757 78 63 0.0 5.0 0.00 0.00 0.00 66 1012.7
20260508001657 78 63 0.0 5.0 0.00 0.00 0.00 66 1012.7
20260508001559 78 63 2.0 5.0 0.00 0.00 0.00 66 1012.7
20260508001459 78 40 2.0 5.0 0.00 0.00 0.00 66 1012.7
20260508001357 78 38 0.0 5.0 0.00 0.00 0.00 66 1012.8
20260508001257 78 38 0.0 5.0 0.00 0.00 0.00 66 1012.8
20260508001201 78 38 3.0 5.0 0.00 0.00 0.00 66 1012.8
20260508001059 78 55 0.0 5.0 0.00 0.00 0.00 66 1012.8
20260508000959 78 55 3.0 5.0 0.00 0.00 0.00 66 1012.8
20260508000857 78 55 3.0 5.0 0.00 0.00 0.00 66 1012.8
20260508000659 78 54 1.0 5.0 0.00 0.00 0.00 66 1012.8
20260508000559 78 54 3.0 5.0 0.00 0.00 0.00 66 1012.7
20260508000457 78 54 1.0 5.0 0.00 0.00 0.00 66 1012.8
20260508000257 78 63 3.0 5.0 0.00 0.00 0.00 66 1012.9
20260508000057 79 54 4.0 5.0 0.00 0.00 0.00 66 1012.8
20260508000005 79 53 2.0 3.0 0.00 0.00 0.00 66 1012.8
20260507235800 79 52 1.0 3.0 0.00 0.00 0.00 66 1012.8
20260507235558 79 52 0.0 3.0 0.00 0.00 0.00 66 1012.7
20260507235500 79 52 0.0 3.0 0.00 0.00 0.00 66 1012.7
20260507235400 79 52 0.0 3.0 0.00 0.00 0.00 66 1012.6
20260507235257 79 52 0.0 4.0 0.00 0.00 0.00 66 1012.6
20260507235157 79 52 0.0 4.0 0.00 0.00 0.00 66 1012.6
20260507235001 79 52 1.0 6.0 0.00 0.00 0.00 66 1012.6
20260507234758 79 52 1.0 6.0 0.00 0.00 0.00 66 1012.6
20260507234559 79 52 1.0 6.0 0.00 0.00 0.00 66 1012.6
20260507234457 79 52 2.0 6.0 0.00 0.00 0.00 66 1012.6
20260507234259 79 42 2.0 6.0 0.00 0.00 0.00 66 1012.5
20260507233959 79 47 0.0 6.0 0.00 0.00 0.00 66 1012.4
20260507233801 79 47 3.0 6.0 0.00 0.00 0.00 66 1012.4
20260507233558 79 54 0.0 5.0 0.00 0.00 0.00 66 1012.4
20260507233457 79 54 0.0 5.0 0.00 0.00 0.00 66 1012.4
20260507233359 79 54 0.0 5.0 0.00 0.00 0.00 66 1012.3
20260507233057 79 56 0.0 5.0 0.00 0.00 0.00 66 1012.3
20260507233000 79 53 5.0 5.0 0.00 0.00 0.00 66 1012.3
20260507232658 79 52 2.0 4.0 0.00 0.00 0.00 66 1012.3
20260507232557 79 52 2.0 4.0 0.00 0.00 0.00 66 1012.3
20260507232459 80 52 0.0 4.0 0.00 0.00 0.00 66 1012.3
20260507232358 80 52 2.0 4.0 0.00 0.00 0.00 66 1012.2
20260507232200 80 54 0.0 5.0 0.00 0.00 0.00 66 1012.3
20260507231959 80 51 1.0 6.0 0.00 0.00 0.00 66 1012.3
20260507231857 80 51 0.0 6.0 0.00 0.00 0.00 66 1012.2
20260507231759 80 51 4.0 6.0 0.00 0.00 0.00 66 1012.2
20260507231558 80 52 1.0 6.0 0.00 0.00 0.00 66 1012.2
20260507231459 80 53 2.0 6.0 0.00 0.00 0.00 65 1012.3
20260507231400 80 52 0.0 6.0 0.00 0.00 0.00 65 1012.2
20260507231259 80 52 4.0 6.0 0.00 0.00 0.00 65 1012.3
20260507231158 80 56 1.0 6.0 0.00 0.00 0.00 65 1012.3
20260507230859 80 86 0.0 4.0 0.00 0.00 0.00 65 1012.3
20260507230758 80 86 0.0 4.0 0.00 0.00 0.00 65 1012.3
20260507230657 81 86 1.0 4.0 0.00 0.00 0.00 65 1012.2
20260507230559 81 86 0.0 4.0 0.00 0.00 0.00 65 1012.2
20260507230459 81 86 1.0 4.0 0.00 0.00 0.00 65 1012.2
20260507230400 81 86 2.0 4.0 0.00 0.00 0.00 65 1012.2
20260507230257 81 86 1.0 4.0 0.00 0.00 0.00 65 1012.1
20260507230159 81 86 0.0 4.0 0.00 0.00 0.00 65 1012.1
20260507230057 81 110 2.0 4.0 0.00 0.00 0.00 65 1012.1
20260507225858 81 126 2.0 4.0 0.00 0.00 0.00 65 1012.2
20260507225800 81 126 1.0 5.0 0.00 0.00 0.00 65 1012.2
20260507225701 81 126 1.0 5.0 0.00 0.00 0.00 65 1012.1
20260507225602 81 126 2.0 5.0 0.00 0.00 0.00 65 1012.2
20260507225359 81 126 2.0 5.0 0.00 0.00 0.00 65 1012.1
20260507225300 81 68 2.0 5.0 0.00 0.00 0.00 65 1012.1
20260507225158 81 68 0.0 5.0 0.00 0.00 0.00 65 1012.2
20260507225058 81 68 0.0 5.0 0.00 0.00 0.00 65 1012.2
20260507225000 81 68 1.0 5.0 0.00 0.00 0.00 65 1012.3
20260507224900 81 50 0.0 4.0 0.00 0.00 0.00 65 1012.3
20260507224801 81 50 0.0 4.0 0.00 0.00 0.00 65 1012.2
20260507224658 81 50 2.0 4.0 0.00 0.00 0.00 66 1012.2
20260507224558 81 50 0.0 4.0 0.00 0.00 0.00 66 1012.2
20260507224459 81 50 0.0 4.0 0.00 0.00 0.00 65 1012.2
20260507224401 81 50 0.0 4.0 0.00 0.00 0.00 65 1012.2
20260507224259 81 50 2.0 4.0 0.00 0.00 0.00 65 1012.2
20260507224159 81 52 1.0 4.0 0.00 0.00 0.00 65 1012.3
20260507224058 80 52 1.0 4.0 0.00 0.00 0.00 65 1012.3
20260507224003 80 52 1.0 4.0 0.00 0.00 0.00 65 1012.3
20260507223901 80 52 1.0 4.0 0.00 0.00 0.00 65 1012.3
20260507223759 80 52 2.0 4.0 0.00 0.00 0.00 65 1012.3
20260507223358 81 67 0.0 5.0 0.00 0.00 0.00 65 1012.2
20260507223258 81 67 0.0 5.0 0.00 0.00 0.00 65 1012.2
20260507223059 81 67 0.0 5.0 0.00 0.00 0.00 65 1012.2
20260507223000 81 66 1.0 5.0 0.00 0.00 0.00 65 1012.2
20260507222858 81 51 2.0 5.0 0.00 0.00 0.00 65 1012.2
20260507222801 81 46 4.0 4.0 0.00 0.00 0.00 65 1012.2
20260507222700 81 42 4.0 4.0 0.00 0.00 0.00 65 1012.2
20260507222558 81 42 0.0 4.0 0.00 0.00 0.00 65 1012.2
20260507222402 81 54 1.0 5.0 0.00 0.00 0.00 65 1012.2
20260507222301 81 56 0.0 7.0 0.00 0.00 0.00 65 1012.2
20260507222159 81 56 2.0 7.0 0.00 0.00 0.00 65 1012.2
20260507222058 81 58 0.0 7.0 0.00 0.00 0.00 65 1012.2
20260507221802 81 142 1.0 7.0 0.00 0.00 0.00 64 1012.1
20260507221700 82 156 3.0 7.0 0.00 0.00 0.00 65 1012.2
20260507221600 82 43 2.0 7.0 0.00 0.00 0.00 64 1012.2
20260507221458 82 41 5.0 7.0 0.00 0.00 0.00 65 1012.2
20260507221359 82 51 4.0 7.0 0.00 0.00 0.00 65 1012.2
20260507221300 82 64 0.0 7.0 0.00 0.00 0.00 65 1012.2
20260507221200 82 63 0.0 7.0 0.00 0.00 0.00 65 1012.1
20260507221059 81 63 1.0 7.0 0.00 0.00 0.00 65 1012.2
20260507221003 81 63 1.0 7.0 0.00 0.00 0.00 65 1012.2
20260507220701 81 64 4.0 7.0 0.00 0.00 0.00 65 1012.3
20260507220458 81 75 0.0 4.0 0.00 0.00 0.00 65 1012.4
20260507220301 81 75 3.0 4.0 0.00 0.00 0.00 65 1012.4
20260507220159 81 75 1.0 5.0 0.00 0.00 0.00 65 1012.4
20260507220058 81 75 1.0 5.0 0.00 0.00 0.00 65 1012.5
20260507220000 81 75 0.0 5.0 0.00 0.00 0.00 65 1012.5
20260507215901 81 75 0.0 5.0 0.00 0.00 0.00 65 1012.5
20260507215802 81 75 2.0 5.0 0.00 0.00 0.00 65 1012.5
20260507215658 81 75 0.0 5.0 0.00 0.00 0.00 65 1012.5
20260507215559 81 75 3.0 5.0 0.00 0.00 0.00 65 1012.5
20260507215501 81 83 0.0 5.0 0.00 0.00 0.00 65 1012.5
20260507215358 81 83 3.0 5.0 0.00 0.00 0.00 65 1012.6
20260507215159 81 152 0.0 5.0 0.00 0.00 0.00 65 1012.6
20260507215101 81 152 0.0 5.0 0.00 0.00 0.00 65 1012.6
20260507215003 81 152 0.0 5.0 0.00 0.00 0.00 65 1012.6
20260507214858 81 152 4.0 5.0 0.00 0.00 0.00 65 1012.6
20260507214758 81 158 1.0 5.0 0.00 0.00 0.00 65 1012.6
20260507214701 81 65 1.0 5.0 0.00 0.00 0.00 65 1012.6
20260507214558 81 65 1.0 5.0 0.00 0.00 0.00 65 1012.6
20260507214458 81 65 2.0 6.0 0.00 0.00 0.00 65 1012.6
20260507214400 81 65 2.0 6.0 0.00 0.00 0.00 65 1012.6
20260507214300 81 49 0.0 6.0 0.00 0.00 0.00 65 1012.6
20260507214200 81 49 0.0 6.0 0.00 0.00 0.00 65 1012.5
20260507214058 81 49 0.0 6.0 0.00 0.00 0.00 65 1012.6
20260507214000 81 49 0.0 6.0 0.00 0.00 0.00 65 1012.6
20260507213804 81 48 2.0 6.0 0.00 0.00 0.00 65 1012.6
20260507213658 81 55 5.0 7.0 0.00 0.00 0.00 65 1012.6
20260507213559 80 357 0.0 7.0 0.00 0.00 0.00 65 1012.6
20260507213459 80 357 0.0 7.0 0.00 0.00 0.00 65 1012.6
20260507213402 80 357 0.0 7.0 0.00 0.00 0.00 65 1012.6
20260507213259 80 357 0.0 7.0 0.00 0.00 0.00 65 1012.5
20260507213159 80 354 2.0 7.0 0.00 0.00 0.00 65 1012.5
20260507213100 80 43 0.0 5.0 0.00 0.00 0.00 65 1012.5
20260507213000 80 43 1.0 5.0 0.00 0.00 0.00 65 1012.5
20260507212858 80 43 0.0 5.0 0.00 0.00 0.00 65 1012.5
20260507212759 79 42 0.0 5.0 0.00 0.00 0.00 65 1012.5
20260507212701 79 42 0.0 5.0 0.00 0.00 0.00 65 1012.5
20260507212601 79 42 0.0 5.0 0.00 0.00 0.00 65 1012.5
20260507212458 79 56 0.0 4.0 0.00 0.00 0.00 65 1012.5
20260507212400 79 56 0.0 4.0 0.00 0.00 0.00 65 1012.5
20260507212258 79 56 0.0 4.0 0.00 0.00 0.00 65 1012.5
20260507212158 79 56 0.0 4.0 0.00 0.00 0.00 66 1012.5
20260507212059 79 56 1.0 4.0 0.00 0.00 0.00 66 1012.5
20260507212000 79 56 0.0 3.0 0.00 0.00 0.00 66 1012.5
20260507211858 78 56 1.0 3.0 0.00 0.00 0.00 66 1012.5
20260507211801 78 56 3.0 3.0 0.00 0.00 0.00 66 1012.5
20260507211658 78 56 2.0 3.0 0.00 0.00 0.00 66 1012.6
20260507211559 78 56 0.0 3.0 0.00 0.00 0.00 66 1012.5
20260507211500 78 56 0.0 3.0 0.00 0.00 0.00 66 1012.5
20260507211400 78 56 1.0 3.0 0.00 0.00 0.00 66 1012.6
20260507211259 78 56 2.0 4.0 0.00 0.00 0.00 66 1012.6
20260507211200 78 56 0.0 7.0 0.00 0.00 0.00 66 1012.6
20260507211002 78 57 1.0 7.0 0.00 0.00 0.00 66 1012.6
20260507210900 78 57 0.0 7.0 0.00 0.00 0.00 66 1012.6
20260507210601 78 56 1.0 7.0 0.00 0.00 0.00 66 1012.6
20260507210458 78 56 2.0 7.0 0.00 0.00 0.00 66 1012.6
20260507210359 78 56 4.0 7.0 0.00 0.00 0.00 66 1012.6
20260507210300 78 69 4.0 6.0 0.00 0.00 0.00 66 1012.7
20260507210201 78 357 0.0 6.0 0.00 0.00 0.00 66 1012.7
20260507210005 78 356 2.0 6.0 0.00 0.00 0.00 66 1012.7
20260507205858 78 54 0.0 6.0 0.00 0.00 0.00 66 1012.7
20260507205759 78 54 0.0 6.0 0.00 0.00 0.00 66 1012.7
20260507205701 78 54 0.0 6.0 0.00 0.00 0.00 66 1012.7
20260507205558 78 54 0.0 6.0 0.00 0.00 0.00 66 1012.8
20260507205458 78 54 1.0 6.0 0.00 0.00 0.00 66 1012.8
20260507205359 78 54 4.0 6.0 0.00 0.00 0.00 66 1012.8
20260507205258 78 52 1.0 6.0 0.00 0.00 0.00 65 1012.9
20260507205200 78 52 3.0 6.0 0.00 0.00 0.00 66 1012.9
20260507205101 78 52 2.0 6.0 0.00 0.00 0.00 66 1012.9
20260507204859 78 58 0.0 5.0 0.00 0.00 0.00 66 1013.0
20260507204759 78 59 2.0 5.0 0.00 0.00 0.00 66 1013.1
20260507204658 78 59 0.0 5.0 0.00 0.00 0.00 66 1013.1
20260507204559 78 59 0.0 5.0 0.00 0.00 0.00 65 1013.1
20260507204459 78 59 0.0 5.0 0.00 0.00 0.00 66 1013.1
20260507204358 78 59 0.0 5.0 0.00 0.00 0.00 66 1013.1
20260507204059 78 59 2.0 5.0 0.00 0.00 0.00 66 1013.1
20260507204000 78 59 2.0 5.0 0.00 0.00 0.00 66 1013.1
20260507203858 78 105 0.0 5.0 0.00 0.00 0.00 66 1013.1
20260507203759 78 105 0.0 5.0 0.00 0.00 0.00 66 1013.2
20260507203658 78 105 1.0 5.0 0.00 0.00 0.00 66 1013.2
20260507203559 78 47 2.0 5.0 0.00 0.00 0.00 66 1013.2
20260507203359 78 36 2.0 5.0 0.00 0.00 0.00 66 1013.3
20260507203258 78 35 0.0 5.0 0.00 0.00 0.00 66 1013.3
20260507203159 78 35 1.0 5.0 0.00 0.00 0.00 66 1013.3
20260507203058 78 35 1.0 5.0 0.00 0.00 0.00 66 1013.3
20260507203000 78 35 2.0 7.0 0.00 0.00 0.00 66 1013.3
20260507202858 78 51 0.0 7.0 0.00 0.00 0.00 66 1013.3
20260507202759 78 51 1.0 7.0 0.00 0.00 0.00 66 1013.3
20260507202559 78 51 1.0 7.0 0.00 0.00 0.00 66 1013.3
20260507202459 78 27 0.0 7.0 0.00 0.00 0.00 66 1013.3
20260507202259 78 27 3.0 8.0 0.00 0.00 0.00 65 1013.3
20260507202159 78 60 7.0 8.0 0.00 0.00 0.00 66 1013.4
20260507202100 78 64 0.0 8.0 0.00 0.00 0.00 66 1013.3
20260507202000 78 64 3.0 8.0 0.00 0.00 0.00 66 1013.3
20260507201858 78 63 2.0 8.0 0.00 0.00 0.00 65 1013.3
20260507201759 78 63 0.0 8.0 0.00 0.00 0.00 65 1013.3
20260507201658 79 63 0.0 8.0 0.00 0.00 0.00 65 1013.3
20260507201559 79 63 4.0 8.0 0.00 0.00 0.00 65 1013.3
20260507201458 79 56 5.0 8.0 0.00 0.00 0.00 65 1013.3
20260507201359 79 52 1.0 6.0 0.00 0.00 0.00 65 1013.3
20260507201258 79 54 2.0 6.0 0.00 0.00 0.00 65 1013.2
20260507201159 79 51 1.0 6.0 0.00 0.00 0.00 65 1013.2
20260507201058 79 50 2.0 6.0 0.00 0.00 0.00 65 1013.3
20260507200858 79 49 0.0 6.0 0.00 0.00 0.00 65 1013.3
20260507200658 79 49 1.0 7.0 0.00 0.00 0.00 65 1013.3
20260507200559 79 46 2.0 7.0 0.00 0.00 0.00 65 1013.3
20260507200359 79 46 0.0 7.0 0.00 0.00 0.00 65 1013.3
20260507200058 79 52 1.0 7.0 0.00 0.00 0.00 65 1013.3
20260507200001 79 52 5.0 7.0 0.00 0.00 0.00 65 1013.3
20260507195859 79 343 3.0 7.0 0.00 0.00 0.00 65 1013.4
20260507195759 79 63 0.0 6.0 0.00 0.00 0.00 65 1013.4
20260507195659 79 58 0.0 6.0 0.00 0.00 0.00 65 1013.4
20260507195559 79 58 0.0 6.0 0.00 0.00 0.00 65 1013.4
20260507195459 79 59 3.0 6.0 0.00 0.00 0.00 65 1013.5
20260507195357 79 63 2.0 6.0 0.00 0.00 0.00 65 1013.5
20260507195258 79 62 1.0 6.0 0.00 0.00 0.00 65 1013.5
20260507195059 79 62 1.0 6.0 0.00 0.00 0.00 65 1013.5
20260507194857 79 60 1.0 7.0 0.00 0.00 0.00 65 1013.6
20260507194659 78 43 0.0 7.0 0.00 0.00 0.00 65 1013.6
20260507194559 78 42 5.0 7.0 0.00 0.00 0.00 65 1013.6
20260507194457 78 68 0.0 7.0 0.00 0.00 0.00 65 1013.6
20260507194400 78 69 0.0 7.0 0.00 0.00 0.00 65 1013.6
20260507194057 78 71 7.0 9.0 0.00 0.00 0.00 65 1013.7
20260507193959 78 51 5.0 9.0 0.00 0.00 0.00 65 1013.6
20260507193856 78 57 4.0 9.0 0.00 0.00 0.00 65 1013.7
20260507193659 77 41 1.0 9.0 0.00 0.00 0.00 65 1013.7
20260507193559 77 41 1.0 9.0 0.00 0.00 0.00 65 1013.7
20260507193458 77 56 1.0 9.0 0.00 0.00 0.00 65 1013.7
20260507193359 77 65 0.0 9.0 0.00 0.00 0.00 65 1013.7
20260507193257 77 77 7.0 9.0 0.00 0.00 0.00 65 1013.7
20260507193200 77 60 2.0 8.0 0.00 0.00 0.00 65 1013.8
20260507193059 77 29 0.0 6.0 0.00 0.00 0.00 65 1013.8
20260507192959 77 55 1.0 7.0 0.00 0.00 0.00 65 1013.7
20260507192858 77 54 4.0 8.0 0.00 0.00 0.00 65 1013.8
20260507192759 77 25 3.0 8.0 0.00 0.00 0.00 65 1013.9
20260507192657 77 50 4.0 8.0 0.00 0.00 0.00 65 1013.9
20260507192558 77 21 0.0 8.0 0.00 0.00 0.00 65 1013.9
20260507192457 77 19 0.0 8.0 0.00 0.00 0.00 65 1013.9
20260507192359 77 37 2.0 8.0 0.00 0.00 0.00 65 1013.9
20260507192257 77 55 3.0 8.0 0.00 0.00 0.00 65 1014.0
20260507192157 77 68 2.0 8.0 0.00 0.00 0.00 65 1014.0
20260507192059 77 68 2.0 8.0 0.00 0.00 0.00 65 1014.0
20260507192001 77 59 5.0 6.0 0.00 0.00 0.00 65 1014.0
20260507191859 77 59 0.0 6.0 0.00 0.00 0.00 65 1014.0
20260507191759 77 58 3.0 6.0 0.00 0.00 0.00 65 1014.0
20260507191659 77 17 1.0 6.0 0.00 0.00 0.00 64 1014.0
20260507191559 77 17 0.0 6.0 0.00 0.00 0.00 65 1014.0
20260507191459 77 17 3.0 6.0 0.00 0.00 0.00 65 1014.0
20260507191200 76 17 0.0 6.0 0.00 0.00 0.00 64 1014.2
20260507191059 76 17 1.0 6.0 0.00 0.00 0.00 64 1014.1
20260507190958 76 53 6.0 6.0 0.00 0.00 0.00 64 1014.1
20260507190759 76 34 1.0 5.0 0.00 0.00 0.00 65 1014.1
20260507190700 76 34 1.0 5.0 0.00 0.00 0.00 65 1014.2
20260507190358 76 56 2.0 5.0 0.00 0.00 0.00 65 1014.1
20260507190259 76 56 2.0 7.0 0.00 0.00 0.00 65 1014.2
20260507190157 76 58 5.0 7.0 0.00 0.00 0.00 64 1014.2
20260507190058 75 335 0.0 7.0 0.00 0.00 0.00 64 1014.2
20260507190006 75 89 4.0 7.0 0.00 0.00 0.00 64 1014.2
20260507185859 75 70 4.0 7.0 0.00 0.00 0.00 64 1014.2
20260507185757 75 84 1.0 7.0 0.00 0.00 0.00 64 1014.3
20260507185459 75 74 1.0 7.0 0.00 0.00 0.00 64 1014.3
20260507185358 75 75 5.0 7.0 0.00 0.00 0.00 64 1014.3
20260507185257 75 33 1.0 7.0 0.00 0.00 0.00 64 1014.3
20260507185200 75 62 4.0 8.0 0.00 0.00 0.00 64 1014.3
20260507185059 75 60 6.0 8.0 0.00 0.00 0.00 64 1014.3
20260507184959 75 68 0.0 8.0 0.00 0.00 0.00 64 1014.4
20260507184857 75 68 2.0 8.0 0.00 0.00 0.00 64 1014.4
20260507184759 74 55 4.0 8.0 0.00 0.00 0.00 64 1014.3
20260507184659 74 53 4.0 8.0 0.00 0.00 0.00 64 1014.3
20260507184557 74 70 0.0 8.0 0.00 0.00 0.00 64 1014.3
20260507184457 74 70 0.0 8.0 0.00 0.00 0.00 64 1014.4
20260507184400 74 70 6.0 8.0 0.00 0.00 0.00 64 1014.4
20260507184158 74 55 3.0 9.0 0.00 0.00 0.00 64 1014.4
20260507184057 74 52 3.0 9.0 0.00 0.00 0.00 64 1014.4
20260507183759 74 75 7.0 9.0 0.00 0.00 0.00 64 1014.4
20260507183657 74 42 5.0 9.0 0.00 0.00 0.00 64 1014.4
20260507183600 74 58 1.0 9.0 0.00 0.00 0.00 64 1014.4
20260507183459 74 69 3.0 9.0 0.00 0.00 0.00 64 1014.4
20260507183400 74 57 8.0 9.0 0.00 0.00 0.00 64 1014.4
20260507183259 74 48 1.0 7.0 0.00 0.00 0.00 64 1014.4
20260507183157 74 27 1.0 7.0 0.00 0.00 0.00 63 1014.4
20260507183058 74 64 0.0 7.0 0.00 0.00 0.00 64 1014.5
20260507182959 74 66 3.0 7.0 0.00 0.00 0.00 63 1014.5
20260507182857 73 66 1.0 7.0 0.00 0.00 0.00 63 1014.4
20260507182757 73 66 0.0 7.0 0.00 0.00 0.00 64 1014.5
20260507182657 73 67 0.0 7.0 0.00 0.00 0.00 64 1014.5
20260507182559 73 67 0.0 7.0 0.00 0.00 0.00 64 1014.5
20260507182457 73 67 5.0 7.0 0.00 0.00 0.00 64 1014.5
20260507182357 73 59 3.0 7.0 0.00 0.00 0.00 64 1014.5
20260507182259 73 81 4.0 4.0 0.00 0.00 0.00 64 1014.5
20260507182200 73 81 0.0 4.0 0.00 0.00 0.00 64 1014.5
20260507182057 73 81 1.0 4.0 0.00 0.00 0.00 64 1014.5
20260507181859 73 81 0.0 5.0 0.00 0.00 0.00 64 1014.6
20260507181759 73 81 2.0 5.0 0.00 0.00 0.00 64 1014.6
20260507181657 73 81 0.0 5.0 0.00 0.00 0.00 64 1014.6
20260507181557 73 81 0.0 5.0 0.00 0.00 0.00 63 1014.6
20260507181459 73 81 1.0 5.0 0.00 0.00 0.00 63 1014.7
20260507181059 73 81 0.0 5.0 0.00 0.00 0.00 63 1014.7
20260507180858 73 81 0.0 3.0 0.00 0.00 0.00 63 1014.6
20260507180758 73 81 0.0 6.0 0.00 0.00 0.00 63 1014.7
20260507180559 73 81 0.0 6.0 0.00 0.00 0.00 62 1014.7
20260507180457 73 87 1.0 6.0 0.00 0.00 0.00 62 1014.7
20260507180357 73 87 1.0 6.0 0.00 0.00 0.00 62 1014.7
20260507180259 73 87 0.0 6.0 0.00 0.00 0.00 62 1014.6
20260507180200 73 87 0.0 6.0 0.00 0.00 0.00 63 1014.7
20260507180057 73 87 1.0 6.0 0.00 0.00 0.00 62 1014.7
20260507175959 73 87 1.0 6.0 0.00 0.00 0.00 63 1014.7
20260507175859 73 3 1.0 6.0 0.00 0.00 0.00 63 1014.8
20260507175759 72 4 1.0 6.0 0.00 0.00 0.00 62 1014.8
20260507175659 72 69 0.0 8.0 0.00 0.00 0.00 62 1014.8
20260507175600 72 69 1.0 8.0 0.00 0.00 0.00 62 1014.8
20260507175359 72 353 1.0 8.0 0.00 0.00 0.00 63 1014.8
20260507175256 72 354 3.0 8.0 0.00 0.00 0.00 62 1014.8
20260507175057 72 71 1.0 8.0 0.00 0.00 0.00 62 1014.8
20260507174856 72 42 4.0 8.0 0.00 0.00 0.00 61 1014.8
20260507174757 72 83 2.0 6.0 0.00 0.00 0.00 61 1014.8
20260507174656 72 84 2.0 6.0 0.00 0.00 0.00 61 1014.8
20260507174559 72 60 4.0 6.0 0.00 0.00 0.00 60 1014.9
20260507174357 72 60 3.0 8.0 0.00 0.00 0.00 60 1014.9
20260507174257 72 36 0.0 8.0 0.00 0.00 0.00 60 1015.0
20260507174059 71 67 5.0 8.0 0.00 0.00 0.00 60 1015.2
20260507173958 71 17 1.0 8.0 0.00 0.00 0.00 60 1015.2
20260507173857 71 18 0.0 8.0 0.00 0.00 0.00 61 1015.2
20260507173800 71 348 2.0 8.0 0.00 0.00 0.00 60 1015.3
20260507173659 71 57 5.0 8.0 0.00 0.00 0.00 60 1015.3
20260507173457 71 340 3.0 7.0 0.00 0.00 0.00 60 1015.3
20260507173400 71 34 3.0 7.0 0.00 0.00 0.00 60 1015.3
20260507173259 71 66 1.0 6.0 0.00 0.00 0.00 60 1015.3
20260507173157 71 57 1.0 6.0 0.00 0.00 0.00 59 1015.3
20260507173057 71 57 3.0 6.0 0.00 0.00 0.00 59 1015.2
20260507172759 70 360 1.0 6.0 0.00 0.00 0.00 59 1015.3
20260507172657 70 71 5.0 6.0 0.00 0.00 0.00 59 1015.4
20260507172559 70 25 2.0 4.0 0.00 0.00 0.00 59 1015.4
20260507172459 70 25 0.0 4.0 0.00 0.00 0.00 59 1015.4
20260507172357 70 25 2.0 6.0 0.00 0.00 0.00 59 1015.4
20260507172158 70 344 2.0 6.0 0.00 0.00 0.00 58 1015.4
20260507172059 70 54 0.0 6.0 0.00 0.00 0.00 58 1015.4
20260507171958 70 54 0.0 6.0 0.00 0.00 0.00 58 1015.4
20260507171856 70 54 1.0 6.0 0.00 0.00 0.00 58 1015.4
20260507171757 70 55 0.0 6.0 0.00 0.00 0.00 58 1015.4
20260507171659 70 55 0.0 6.0 0.00 0.00 0.00 58 1015.4
20260507171559 70 55 3.0 6.0 0.00 0.00 0.00 57 1015.4
20260507171358 70 60 1.0 6.0 0.00 0.00 0.00 58 1015.4
20260507171259 69 60 0.0 6.0 0.00 0.00 0.00 57 1015.4
20260507171159 69 60 0.0 6.0 0.00 0.00 0.00 57 1015.4
20260507171057 69 60 1.0 6.0 0.00 0.00 0.00 57 1015.4
20260507171003 69 345 0.0 5.0 0.00 0.00 0.00 56 1015.4
20260507170800 69 55 2.0 9.0 0.00 0.00 0.00 57 1015.4
20260507170659 69 55 2.0 9.0 0.00 0.00 0.00 57 1015.4
20260507170559 69 22 1.0 9.0 0.00 0.00 0.00 57 1015.5
20260507170400 69 61 0.0 9.0 0.00 0.00 0.00 58 1015.5
20260507170257 69 61 2.0 9.0 0.00 0.00 0.00 58 1015.5
20260507170157 69 61 0.0 9.0 0.00 0.00 0.00 58 1015.5
20260507170005 69 49 3.0 9.0 0.00 0.00 0.00 59 1015.5
20260507165858 69 54 3.0 7.0 0.00 0.00 0.00 58 1015.5
20260507165757 69 87 6.0 7.0 0.00 0.00 0.00 58 1015.5
20260507165659 69 66 2.0 6.0 0.00 0.00 0.00 58 1015.5
20260507165559 69 66 0.0 6.0 0.00 0.00 0.00 58 1015.5
20260507165159 69 65 2.0 5.0 0.00 0.00 0.00 56 1015.5
20260507164958 69 65 0.0 5.0 0.00 0.00 0.00 57 1015.5
20260507164759 69 65 1.0 5.0 0.00 0.00 0.00 57 1015.5
20260507164658 69 55 3.0 5.0 0.00 0.00 0.00 57 1015.5
20260507164557 69 55 0.0 5.0 0.00 0.00 0.00 57 1015.5
20260507164459 69 55 0.0 5.0 0.00 0.00 0.00 57 1015.5
20260507164359 69 55 2.0 5.0 0.00 0.00 0.00 56 1015.5
20260507164257 69 60 2.0 5.0 0.00 0.00 0.00 56 1015.4
20260507164157 69 67 3.0 4.0 0.00 0.00 0.00 55 1015.5
20260507164059 69 68 1.0 4.0 0.00 0.00 0.00 54 1015.4
20260507163857 68 63 3.0 4.0 0.00 0.00 0.00 53 1015.4
20260507163657 68 63 1.0 5.0 0.00 0.00 0.00 53 1015.3
20260507163559 68 63 3.0 5.0 0.00 0.00 0.00 52 1015.3
20260507163459 68 85 0.0 6.0 0.00 0.00 0.00 52 1015.3
20260507163358 68 85 0.0 6.0 0.00 0.00 0.00 52 1015.3
20260507163257 68 85 1.0 6.0 0.00 0.00 0.00 52 1015.3
20260507163200 68 85 0.0 6.0 0.00 0.00 0.00 53 1015.2
20260507163059 68 85 0.0 6.0 0.00 0.00 0.00 54 1015.2
20260507163001 68 85 0.0 7.0 0.00 0.00 0.00 54 1015.2
20260507162859 67 85 4.0 7.0 0.00 0.00 0.00 54 1015.1
20260507162759 67 61 2.0 7.0 0.00 0.00 0.00 53 1015.1
20260507162656 67 44 1.0 7.0 0.00 0.00 0.00 52 1015.0
20260507162559 67 32 0.0 7.0 0.00 0.00 0.00 53 1015.0
20260507162459 67 32 2.0 7.0 0.00 0.00 0.00 53 1015.0
20260507162359 67 54 0.0 7.0 0.00 0.00 0.00 53 1015.0
20260507162259 67 54 3.0 7.0 0.00 0.00 0.00 53 1015.1
20260507162157 67 54 1.0 8.0 0.00 0.00 0.00 52 1015.1
20260507162057 67 34 4.0 8.0 0.00 0.00 0.00 52 1015.0
20260507161959 67 61 0.0 8.0 0.00 0.00 0.00 52 1015.1
20260507161857 67 61 1.0 8.0 0.00 0.00 0.00 52 1015.0
20260507161759 67 61 0.0 8.0 0.00 0.00 0.00 53 1015.0
20260507161658 67 61 1.0 8.0 0.00 0.00 0.00 53 1014.9
20260507161600 67 58 3.0 9.0 0.00 0.00 0.00 53 1015.0
20260507161357 67 61 4.0 12.0 0.00 0.00 0.00 53 1015.1
20260507161159 66 81 0.0 12.0 0.00 0.00 0.00 53 1015.2
20260507161059 66 60 1.0 12.0 0.00 0.00 0.00 54 1015.2
20260507160859 67 38 3.0 12.0 0.00 0.00 0.00 54 1015.2
20260507160757 67 50 5.0 12.0 0.00 0.00 0.00 53 1015.2
20260507160656 67 36 9.0 12.0 0.00 0.00 0.00 53 1015.3
20260507160559 67 74 8.0 8.0 0.00 0.00 0.00 53 1015.2
20260507160257 67 121 3.0 9.0 0.00 0.00 0.00 52 1015.2
20260507160058 67 52 0.0 11.0 0.00 0.00 0.00 52 1015.2
20260507155659 67 67 5.0 11.0 0.00 0.00 0.00 52 1015.2
20260507155559 67 42 7.0 11.0 0.00 0.00 0.00 52 1015.2
20260507155459 67 57 4.0 11.0 0.00 0.00 0.00 52 1015.2
20260507155400 67 35 2.0 11.0 0.00 0.00 0.00 51 1015.2
20260507155259 67 50 1.0 10.0 0.00 0.00 0.00 51 1015.2
20260507155059 67 22 2.0 8.0 0.00 0.00 0.00 50 1015.2
20260507155000 67 60 2.0 8.0 0.00 0.00 0.00 49 1015.1
20260507154800 66 45 3.0 8.0 0.00 0.00 0.00 49 1015.0
20260507154659 66 29 0.0 8.0 0.00 0.00 0.00 48 1015.2
20260507154600 66 29 2.0 8.0 0.00 0.00 0.00 48 1015.2
20260507154458 66 55 2.0 8.0 0.00 0.00 0.00 48 1015.1
20260507154200 66 61 4.0 5.0 0.00 0.00 0.00 45 1015.1
20260507154059 66 57 0.0 5.0 0.00 0.00 0.00 46 1015.2
20260507154001 66 57 0.0 5.0 0.00 0.00 0.00 46 1015.1
20260507153859 66 57 0.0 5.0 0.00 0.00 0.00 46 1015.2
20260507153759 66 57 0.0 7.0 0.00 0.00 0.00 46 1015.2
20260507153659 66 57 2.0 7.0 0.00 0.00 0.00 46 1015.2
20260507153559 66 57 3.0 7.0 0.00 0.00 0.00 46 1015.2
20260507153459 66 56 0.0 7.0 0.00 0.00 0.00 47 1015.3
20260507153400 66 56 3.0 7.0 0.00 0.00 0.00 46 1015.3
20260507153258 66 58 5.0 7.0 0.00 0.00 0.00 46 1015.3
20260507153059 65 57 1.0 7.0 0.00 0.00 0.00 47 1015.3
20260507153001 65 57 3.0 8.0 0.00 0.00 0.00 46 1015.3
20260507152859 65 54 4.0 8.0 0.00 0.00 0.00 46 1015.4
20260507152800 65 67 2.0 8.0 0.00 0.00 0.00 46 1015.4
20260507152659 65 67 0.0 8.0 0.00 0.00 0.00 46 1015.4
20260507152500 65 29 4.0 8.0 0.00 0.00 0.00 46 1015.4
20260507152259 65 29 1.0 8.0 0.00 0.00 0.00 47 1015.3
20260507152200 65 30 7.0 8.0 0.00 0.00 0.00 47 1015.4
20260507152001 65 50 3.0 8.0 0.00 0.00 0.00 46 1015.4
20260507151858 65 351 2.0 8.0 0.00 0.00 0.00 46 1015.5
20260507151800 65 70 0.0 8.0 0.00 0.00 0.00 46 1015.6
20260507151659 65 71 5.0 8.0 0.00 0.00 0.00 45 1015.5
20260507151600 65 73 4.0 8.0 0.00 0.00 0.00 45 1015.5
20260507151500 65 65 2.0 8.0 0.00 0.00 0.00 45 1015.5
20260507151400 65 52 4.0 8.0 0.00 0.00 0.00 45 1015.4
20260507151259 65 57 3.0 8.0 0.00 0.00 0.00 44 1015.4
20260507151200 65 73 4.0 6.0 0.00 0.00 0.00 44 1015.3
20260507151059 65 52 4.0 6.0 0.00 0.00 0.00 44 1015.3
20260507151002 65 52 2.0 6.0 0.00 0.00 0.00 44 1015.3
20260507150800 65 59 3.0 5.0 0.00 0.00 0.00 44 1015.4
20260507150700 65 67 0.0 5.0 0.00 0.00 0.00 44 1015.4
20260507150600 65 47 2.0 6.0 0.00 0.00 0.00 44 1015.4
20260507150500 65 47 1.0 6.0 0.00 0.00 0.00 44 1015.5
20260507150359 65 54 0.0 6.0 0.00 0.00 0.00 44 1015.5
20260507150259 65 52 4.0 6.0 0.00 0.00 0.00 44 1015.4
20260507150001 65 60 0.0 6.0 0.00 0.00 0.00 44 1015.5
20260507145858 65 60 0.0 6.0 0.00 0.00 0.00 44 1015.5
20260507145758 65 61 6.0 6.0 0.00 0.00 0.00 44 1015.5
20260507145658 65 34 0.0 5.0 0.00 0.00 0.00 44 1015.4
20260507145559 65 67 4.0 5.0 0.00 0.00 0.00 43 1015.5
20260507145359 65 63 1.0 6.0 0.00 0.00 0.00 44 1015.4
20260507145258 65 65 4.0 6.0 0.00 0.00 0.00 44 1015.3
20260507145159 65 65 0.0 6.0 0.00 0.00 0.00 44 1015.2
20260507145058 65 65 2.0 6.0 0.00 0.00 0.00 44 1015.3
20260507144958 65 65 2.0 6.0 0.00 0.00 0.00 43 1015.4
20260507144858 65 55 0.0 6.0 0.00 0.00 0.00 44 1015.3
20260507144758 65 55 0.0 6.0 0.00 0.00 0.00 44 1015.3
20260507144658 65 55 1.0 6.0 0.00 0.00 0.00 44 1015.3
20260507144559 65 56 5.0 6.0 0.00 0.00 0.00 44 1015.2
20260507144459 65 67 5.0 5.0 0.00 0.00 0.00 44 1015.2
20260507144359 65 74 2.0 7.0 0.00 0.00 0.00 44 1015.2
20260507144159 65 77 0.0 7.0 0.00 0.00 0.00 44 1015.3
20260507144056 65 77 1.0 7.0 0.00 0.00 0.00 44 1015.3
20260507143958 65 77 0.0 7.0 0.00 0.00 0.00 44 1015.3
20260507143759 65 77 2.0 7.0 0.00 0.00 0.00 44 1015.2
20260507143657 65 77 0.0 7.0 0.00 0.00 0.00 44 1015.2
20260507143557 65 77 1.0 8.0 0.00 0.00 0.00 44 1015.1
20260507143459 65 63 0.0 8.0 0.00 0.00 0.00 44 1015.1
20260507143359 65 63 4.0 10.0 0.00 0.00 0.00 45 1015.0
20260507143256 65 58 3.0 10.0 0.00 0.00 0.00 45 1014.8
20260507143059 65 58 5.0 12.0 0.00 0.00 0.00 45 1014.7
20260507143000 65 75 2.0 12.0 0.00 0.00 0.00 45 1014.7
20260507142757 65 49 4.0 12.0 0.00 0.00 0.00 46 1014.7
20260507142658 65 70 7.0 12.0 0.00 0.00 0.00 46 1014.8
20260507142459 65 346 1.0 12.0 0.00 0.00 0.00 46 1014.8
20260507142359 65 77 4.0 12.0 0.00 0.00 0.00 46 1014.8
20260507142256 65 60 2.0 12.0 0.00 0.00 0.00 46 1014.8
20260507142157 65 59 0.0 12.0 0.00 0.00 0.00 46 1014.8
20260507142059 65 59 4.0 12.0 0.00 0.00 0.00 46 1014.7
20260507141857 65 62 6.0 12.0 0.00 0.00 0.00 46 1014.7
20260507141800 65 70 6.0 12.0 0.00 0.00 0.00 46 1014.6
20260507141559 65 38 1.0 9.0 0.00 0.00 0.00 46 1014.6
20260507141459 66 56 1.0 9.0 0.00 0.00 0.00 46 1014.6
20260507141357 66 104 4.0 9.0 0.00 0.00 0.00 46 1014.6
20260507141057 66 67 2.0 7.0 0.00 0.00 0.00 45 1014.7
20260507141000 66 67 0.0 7.0 0.00 0.00 0.00 46 1014.7
20260507140857 66 63 6.0 8.0 0.00 0.00 0.00 45 1014.6
20260507140759 66 55 0.0 8.0 0.00 0.00 0.00 45 1014.6
20260507140657 65 55 0.0 8.0 0.00 0.00 0.00 45 1014.5
20260507140557 65 55 0.0 8.0 0.00 0.00 0.00 45 1014.5
20260507140457 65 67 4.0 8.0 0.00 0.00 0.00 45 1014.5
20260507140359 65 69 0.0 8.0 0.00 0.00 0.00 45 1014.5
20260507140258 65 69 3.0 8.0 0.00 0.00 0.00 46 1014.5
20260507140157 65 69 3.0 8.0 0.00 0.00 0.00 46 1014.5
20260507140059 65 66 3.0 8.0 0.00 0.00 0.00 46 1014.5
20260507140006 65 23 3.0 7.0 0.00 0.00 0.00 46 1014.5
20260507135900 65 63 4.0 7.0 0.00 0.00 0.00 46 1014.6
20260507135758 65 63 1.0 7.0 0.00 0.00 0.00 46 1014.7
20260507135500 65 63 0.0 8.0 0.00 0.00 0.00 47 1014.7
20260507135358 65 69 6.0 8.0 0.00 0.00 0.00 46 1014.7
20260507135258 65 73 2.0 8.0 0.00 0.00 0.00 47 1014.7
20260507135200 65 158 4.0 8.0 0.00 0.00 0.00 47 1014.6
20260507134959 65 63 4.0 8.0 0.00 0.00 0.00 47 1014.6
20260507134858 65 67 4.0 8.0 0.00 0.00 0.00 47 1014.6
20260507134800 65 15 2.0 7.0 0.00 0.00 0.00 47 1014.6
20260507134659 65 56 1.0 7.0 0.00 0.00 0.00 47 1014.6
20260507134558 65 61 7.0 7.0 0.00 0.00 0.00 46 1014.6
20260507134458 65 31 4.0 6.0 0.00 0.00 0.00 46 1014.7
20260507134400 65 29 1.0 8.0 0.00 0.00 0.00 46 1014.7
20260507134200 65 27 0.0 12.0 0.00 0.00 0.00 46 1014.8
20260507134057 65 27 1.0 12.0 0.00 0.00 0.00 46 1014.8
20260507133859 65 18 2.0 12.0 0.00 0.00 0.00 46 1014.8
20260507133658 65 86 1.0 12.0 0.00 0.00 0.00 47 1014.7
20260507133558 65 86 1.0 12.0 0.00 0.00 0.00 47 1014.7
20260507133400 66 29 6.0 11.0 0.00 0.00 0.00 47 1014.9
20260507133257 66 73 8.0 9.0 0.00 0.00 0.00 47 1015.0
20260507133059 66 70 2.0 10.0 0.00 0.00 0.00 47 1015.1
20260507133001 66 70 0.0 10.0 0.00 0.00 0.00 47 1015.2
20260507132758 66 341 3.0 10.0 0.00 0.00 0.00 48 1015.3
20260507132659 66 77 3.0 10.0 0.00 0.00 0.00 48 1015.4
20260507132600 66 338 0.0 10.0 0.00 0.00 0.00 48 1015.3
20260507132457 66 335 1.0 10.0 0.00 0.00 0.00 48 1015.3
20260507132358 66 338 5.0 10.0 0.00 0.00 0.00 47 1015.4
20260507132258 66 55 4.0 10.0 0.00 0.00 0.00 47 1015.4
20260507132200 66 82 5.0 10.0 0.00 0.00 0.00 46 1015.3
20260507132058 66 53 9.0 9.0 0.00 0.00 0.00 46 1015.2
20260507131959 66 75 4.0 7.0 0.00 0.00 0.00 46 1015.3
20260507131900 66 320 2.0 7.0 0.00 0.00 0.00 45 1015.3
20260507131800 66 316 1.0 9.0 0.00 0.00 0.00 45 1015.3
20260507131657 66 346 1.0 9.0 0.00 0.00 0.00 45 1015.3
20260507131500 66 343 0.0 9.0 0.00 0.00 0.00 44 1015.2
20260507131359 66 327 2.0 9.0 0.00 0.00 0.00 44 1015.2
20260507131257 66 340 7.0 9.0 0.00 0.00 0.00 43 1015.2
20260507131159 66 44 0.0 9.0 0.00 0.00 0.00 43 1015.1
20260507131058 67 55 0.0 9.0 0.00 0.00 0.00 43 1015.0
20260507131001 67 43 1.0 9.0 0.00 0.00 0.00 42 1015.0
20260507130859 67 66 3.0 9.0 0.00 0.00 0.00 42 1014.9
20260507130758 67 345 3.0 7.0 0.00 0.00 0.00 41 1014.9
20260507130600 67 22 0.0 8.0 0.00 0.00 0.00 41 1014.9
20260507130457 67 22 3.0 8.0 0.00 0.00 0.00 41 1014.9
20260507130358 67 21 0.0 9.0 0.00 0.00 0.00 42 1015.0
20260507130257 67 21 0.0 9.0 0.00 0.00 0.00 42 1014.9
20260507130200 67 21 0.0 9.0 0.00 0.00 0.00 42 1014.8
20260507130057 67 26 1.0 9.0 0.00 0.00 0.00 42 1014.8
20260507125859 67 50 3.0 9.0 0.00 0.00 0.00 42 1014.7
20260507125800 67 58 0.0 9.0 0.00 0.00 0.00 42 1014.7
20260507125659 67 52 4.0 9.0 0.00 0.00 0.00 42 1014.7
20260507125558 67 96 5.0 9.0 0.00 0.00 0.00 42 1014.8
20260507125500 67 56 2.0 6.0 0.00 0.00 0.00 42 1014.7
20260507125259 67 18 0.0 6.0 0.00 0.00 0.00 42 1014.8
20260507125200 67 19 1.0 6.0 0.00 0.00 0.00 42 1014.8
20260507125057 67 46 4.0 6.0 0.00 0.00 0.00 42 1014.9
20260507125001 67 330 3.0 6.0 0.00 0.00 0.00 41 1014.9
20260507124859 67 291 1.0 7.0 0.00 0.00 0.00 41 1014.8
20260507124758 67 60 0.0 7.0 0.00 0.00 0.00 41 1014.9
20260507124657 67 61 3.0 7.0 0.00 0.00 0.00 41 1014.9
20260507124600 67 66 0.0 7.0 0.00 0.00 0.00 41 1014.9
20260507124158 67 68 0.0 10.0 0.00 0.00 0.00 40 1014.7
20260507124059 67 68 4.0 10.0 0.00 0.00 0.00 40 1014.7
20260507123857 67 62 0.0 10.0 0.00 0.00 0.00 40 1014.6
20260507123800 67 56 4.0 10.0 0.00 0.00 0.00 40 1014.6
20260507123659 67 67 1.0 10.0 0.00 0.00 0.00 40 1014.6
20260507123558 67 11 0.0 10.0 0.00 0.00 0.00 40 1014.6
20260507123457 67 61 2.0 10.0 0.00 0.00 0.00 40 1014.5
20260507123200 0 0.0 0.0 0.00 0.00 0.00 1014.3
20260507123057 0 0.0 0.0 0.00 0.00 0.00 1014.2
20260507122959 0 0.0 0.0 0.00 0.00 0.00 1014.2
20260507122859 0 0.0 0.0 0.00 0.00 0.00 1014.2
20260507122758 0 0.0 0.0 0.00 0.00 0.00 1014.1
20260507122659 0 0.0 0.0 0.00 0.00 0.00 1014.1
20260507122558 0 0.0 0.0 0.00 0.00 0.00 1014.1
20260507122500 0 0.0 0.0 0.00 0.00 0.00 1014.0
20260507122358 0 0.0 0.0 0.00 0.00 0.00 1014.1
20260507122259 0 0.0 0.0 0.00 0.00 0.00 1014.0
20260507122200 0 0.0 0.0 0.00 0.00 0.00 1014.0
20260507122101 0 0.0 0.0 0.00 0.00 0.00 1013.9
20260507122001 0 0.0 0.0 0.00 0.00 0.00 1013.9
20260507121858 0 0.0 0.0 0.00 0.00 0.00 1013.9
20260507121757 0 0.0 0.0 0.00 0.00 0.00 1013.9
20260507121658 0 0.0 0.0 0.00 0.00 0.00 1013.9
20260507121259 0 0.0 0.0 0.00 0.00 0.00 1013.9
20260507121158 0 0.0 0.0 0.00 0.00 0.00 1013.9
20260507121059 0 0.0 0.0 0.00 0.00 0.00 1013.9
20260507121010 0 0.0 0.0 0.00 0.00 0.00 1013.9
20260507120859 0 0.0 0.0 0.00 0.00 0.00 1013.9
20260507120758 0 0.0 0.0 0.00 0.00 0.00 1013.9
20260507120659 0 0.0 0.0 0.00 0.00 0.00 1014.0
20260507120600 0 0.0 0.0 0.00 0.00 0.00 1013.9
20260507120458 0 0.0 0.0 0.00 0.00 0.00 1013.9
20260507120400 0 0.0 0.0 0.00 0.00 0.00 1013.8
20260507120257 0 0.0 0.0 0.00 0.00 0.00 1013.8
20260507120200 0 0.0 0.0 0.00 0.00 0.00 1013.8
20260507120057 0 0.0 0.0 0.00 0.00 0.00 1013.8
20260507120001 0 0.0 0.0 0.00 0.00 0.00 1013.7
20260507115858 0 0.0 0.0 0.00 0.00 0.00 1013.8
20260507115758 0 0.0 0.0 0.00 0.00 0.00 1013.8
20260507115500 0 0.0 0.0 0.00 0.00 0.00 1013.8
20260507115358 0 0.0 0.0 0.00 0.00 0.00 1013.7
20260507115259 0 0.0 0.0 0.00 0.00 0.00 1013.7
20260507115200 0 0.0 0.0 0.00 0.00 0.00 1013.6
20260507115057 0 0.0 0.0 0.00 0.00 0.00 1013.5
20260507115000 0 0.0 0.0 0.00 0.00 0.00 1013.5
20260507114859 0 0.0 0.0 0.00 0.00 0.00 1013.4
20260507114758 0 0.0 0.0 0.00 0.00 0.00 1013.4
20260507114657 0 0.0 0.0 0.00 0.00 0.00 1013.4
20260507114559 0 0.0 0.0 0.00 0.00 0.00 1013.4
20260507114459 0 0.0 0.0 0.00 0.00 0.00 1013.3
20260507114358 0 0.0 0.0 0.00 0.00 0.00 1013.3
20260507114257 0 0.0 0.0 0.00 0.00 0.00 1013.3
20260507114100 0 0.0 0.0 0.00 0.00 0.00 1013.3
20260507114001 0 0.0 0.0 0.00 0.00 0.00 1013.4
20260507113857 0 0.0 0.0 0.00 0.00 0.00 1013.3
20260507113758 0 0.0 0.0 0.00 0.00 0.00 1013.3
20260507113658 0 0.0 0.0 0.00 0.00 0.00 1013.2
20260507113500 0 0.0 0.0 0.00 0.00 0.00 1013.2
20260507113257 0 0.0 0.0 0.00 0.00 0.00 1013.2
20260507113200 0 0.0 0.0 0.00 0.00 0.00 1013.3
20260507113057 0 0.0 0.0 0.00 0.00 0.00 1013.2
20260507113001 0 0.0 0.0 0.00 0.00 0.00 1013.2
20260507112857 0 0.0 0.0 0.00 0.00 0.00 1013.2
20260507112800 0 0.0 0.0 0.00 0.00 0.00 1013.2
20260507112658 0 0.0 0.0 0.00 0.00 0.00 1013.2
20260507112558 0 0.0 0.0 0.00 0.00 0.00 1013.3
20260507112458 0 0.0 0.0 0.00 0.00 0.00 1013.2
20260507112358 0 0.0 0.0 0.00 0.00 0.00 1013.2
20260507112200 0 0.0 0.0 0.00 0.00 0.00 1013.2
20260507112059 0 0.0 0.0 0.00 0.00 0.00 1013.1
20260507112001 0 0.0 0.0 0.00 0.00 0.00 1013.0
20260507111859 0 0.0 0.0 0.00 0.00 0.00 1012.8
20260507111659 0 0.0 0.0 0.00 0.00 0.00 1012.9
20260507111558 0 0.0 0.0 0.00 0.00 0.00 1012.9
20260507111459 0 0.0 0.0 0.00 0.00 0.00 1013.0
20260507111358 0 0.0 0.0 0.00 0.00 0.00 1012.8
20260507111158 0 0.0 0.0 0.00 0.00 0.00 1012.7
20260507111057 0 0.0 0.0 0.00 0.00 0.00 1012.8
20260507111002 0 0.0 0.0 0.00 0.00 0.00 1012.7
20260507110857 0 0.0 0.0 0.00 0.00 0.00 1012.8
20260507110758 0 0.0 0.0 0.00 0.00 0.00 1012.8
20260507110657 0 0.0 0.0 0.00 0.00 0.00 1012.9
20260507110558 0 0.0 0.0 0.00 0.00 0.00 1012.9
20260507110458 0 0.0 0.0 0.00 0.00 0.00 1013.0
20260507110400 0 0.0 0.0 0.00 0.00 0.00 1013.0
20260507110259 0 0.0 0.0 0.00 0.00 0.00 1012.9
20260507110159 0 0.0 0.0 0.00 0.00 0.00 1012.8
20260507110059 0 0.0 0.0 0.00 0.00 0.00 1012.8
20260507110001 0 0.0 0.0 0.00 0.00 0.00 1012.8
20260507105859 0 0.0 0.0 0.00 0.00 0.00 1012.8
20260507105800 0 0.0 0.0 0.00 0.00 0.00 1012.8
20260507105659 0 0.0 0.0 0.00 0.00 0.00 1012.7
20260507105600 0 0.0 0.0 0.00 0.00 0.00 1012.7
20260507105500 0 0.0 0.0 0.00 0.00 0.00 1012.8
20260507105058 0 0.0 0.0 0.00 0.00 0.00 1012.8
20260507105001 0 0.0 0.0 0.00 0.00 0.00 1012.8
20260507104758 0 0.0 0.0 0.00 0.00 0.00 1012.9
20260507104659 0 0.0 0.0 0.00 0.00 0.00 1013.0
20260507104600 0 0.0 0.0 0.00 0.00 0.00 1012.9
20260507104459 0 0.0 0.0 0.00 0.00 0.00 1013.0
20260507104358 0 0.0 0.0 0.00 0.00 0.00 1013.0
20260507104259 0 0.0 0.0 0.00 0.00 0.00 1012.9
20260507104200 0 0.0 0.0 0.00 0.00 0.00 1012.9
20260507104058 0 0.0 0.0 0.00 0.00 0.00 1012.9
20260507103800 0 0.0 0.0 0.00 0.00 0.00 1012.8
20260507103657 0 0.0 0.0 0.00 0.00 0.00 1012.9
20260507103600 0 0.0 0.0 0.00 0.00 0.00 1012.8
20260507103458 0 0.0 0.0 0.00 0.00 0.00 1012.8
20260507103257 0 0.0 0.0 0.00 0.00 0.00 1012.8
20260507103059 0 0.0 0.0 0.00 0.00 0.00 1012.9
20260507103002 0 0.0 0.0 0.00 0.00 0.00 1012.9
20260507102858 0 0.0 0.0 0.00 0.00 0.00 1013.0
20260507102659 0 0.0 0.0 0.00 0.00 0.00 1013.0
20260507102600 0 0.0 0.0 0.00 0.00 0.00 1012.8
20260507102459 0 0.0 0.0 0.00 0.00 0.00 1012.9
20260507102359 0 0.0 0.0 0.00 0.00 0.00 1012.8
20260507102200 0 0.0 0.0 0.00 0.00 0.00 1012.7
20260507102059 0 0.0 0.0 0.00 0.00 0.00 1012.8
20260507102001 0 0.0 0.0 0.00 0.00 0.00 1012.7
20260507101758 0 0.0 0.0 0.00 0.00 0.00 1012.6
20260507101658 0 0.0 0.0 0.00 0.00 0.00 1012.6
20260507101558 0 0.0 0.0 0.00 0.00 0.00 1012.6
20260507101458 0 0.0 0.0 0.00 0.00 0.00 1012.6
20260507101359 0 0.0 0.0 0.00 0.00 0.00 1012.6
20260507101258 0 0.0 0.0 0.00 0.00 0.00 1012.5
20260507101158 0 0.0 0.0 0.00 0.00 0.00 1012.5
20260507100858 0 0.0 0.0 0.00 0.00 0.00 1012.5
20260507100658 0 0.0 0.0 0.00 0.00 0.00 1012.5
20260507100559 0 0.0 0.0 0.00 0.00 0.00 1012.5
20260507100458 0 0.0 0.0 0.00 0.00 0.00 1012.5
20260507100358 0 0.0 0.0 0.00 0.00 0.00 1012.5
20260507100258 0 0.0 0.0 0.00 0.00 0.00 1012.5
20260507100158 0 0.0 0.0 0.00 0.00 0.00 1012.5
20260507100058 0 0.0 0.0 0.00 0.00 0.00 1012.5
20260507100002 0 0.0 0.0 0.00 0.00 0.00 1012.5
20260507095858 0 0.0 0.0 0.00 0.00 0.00 1012.5
20260507095658 0 0.0 0.0 0.00 0.00 0.00 1012.4
20260507095558 0 0.0 0.0 0.00 0.00 0.00 1012.3
20260507095258 0 0.0 0.0 0.00 0.00 0.00 1012.2
20260507095159 0 0.0 0.0 0.00 0.00 0.00 1012.2
20260507095058 0 0.0 0.0 0.00 0.00 0.00 1012.2
20260507094959 0 0.0 0.0 0.00 0.00 0.00 1012.2
20260507094858 0 0.0 0.0 0.00 0.00 0.00 1012.3
20260507094658 0 0.0 0.0 0.00 0.00 0.00 1012.3
20260507094559 0 0.0 0.0 0.00 0.00 0.00 1012.2
20260507094458 0 0.0 0.0 0.00 0.00 0.00 1012.2
20260507094358 0 0.0 0.0 0.00 0.00 0.00 1012.1
20260507094258 0 0.0 0.0 0.00 0.00 0.00 1012.1
20260507094200 0 0.0 0.0 0.00 0.00 0.00 1012.1
20260507094059 0 0.0 0.0 0.00 0.00 0.00 1012.1
20260507094001 0 0.0 0.0 0.00 0.00 0.00 1012.0
20260507093857 0 0.0 0.0 0.00 0.00 0.00 1012.0
20260507093800 0 0.0 0.0 0.00 0.00 0.00 1012.1
20260507093659 0 0.0 0.0 0.00 0.00 0.00 1012.0
20260507093459 0 0.0 0.0 0.00 0.00 0.00 1012.1
20260507093400 0 0.0 0.0 0.00 0.00 0.00 1012.0
20260507093259 0 0.0 0.0 0.00 0.00 0.00 1012.1
20260507093200 0 0.0 0.0 0.00 0.00 0.00 1012.1
20260507093001 0 0.0 0.0 0.00 0.00 0.00 1012.1
20260507092859 0 0.0 0.0 0.00 0.00 0.00 1012.1
20260507092759 0 0.0 0.0 0.00 0.00 0.00 1012.2
20260507092657 0 0.0 0.0 0.00 0.00 0.00 1012.1
20260507092559 0 0.0 0.0 0.00 0.00 0.00 1012.2
20260507092458 0 0.0 0.0 0.00 0.00 0.00 1012.2
20260507092358 0 0.0 0.0 0.00 0.00 0.00 1012.2
20260507092257 0 0.0 0.0 0.00 0.00 0.00 1012.2
20260507092158 0 0.0 0.0 0.00 0.00 0.00 1012.2
20260507092059 0 0.0 0.0 0.00 0.00 0.00 1012.2
20260507092001 0 0.0 0.0 0.00 0.00 0.00 1012.2
20260507091859 0 0.0 0.0 0.00 0.00 0.00 1012.2
20260507091758 0 0.0 0.0 0.00 0.00 0.00 1012.2
20260507091659 0 0.0 0.0 0.00 0.00 0.00 1012.1
20260507091600 0 0.0 0.0 0.00 0.00 0.00 1012.1
20260507091500 0 0.0 0.0 0.00 0.00 0.00 1012.1
20260507091359 0 0.0 0.0 0.00 0.00 0.00 1012.1
20260507091257 0 0.0 0.0 0.00 0.00 0.00 1012.1
20260507091059 0 0.0 0.0 0.00 0.00 0.00 1012.1
20260507090959 0 0.0 0.0 0.00 0.00 0.00 1012.1
20260507090858 0 0.0 0.0 0.00 0.00 0.00 1012.0
20260507090758 0 0.0 0.0 0.00 0.00 0.00 1012.0
20260507090659 0 0.0 0.0 0.00 0.00 0.00 1012.1
20260507090559 0 0.0 0.0 0.00 0.00 0.00 1012.1
20260507090458 0 0.0 0.0 0.00 0.00 0.00 1012.1
20260507090258 0 0.0 0.0 0.00 0.00 0.00 1012.1
20260507090158 0 0.0 0.0 0.00 0.00 0.00 1012.1
20260507090057 0 0.0 0.0 0.00 0.00 0.00 1012.1
20260507090002 0 0.0 0.0 0.00 0.00 0.00 1012.1
20260507085858 0 0.0 0.0 0.00 0.00 0.00 1012.1
20260507085758 0 0.0 0.0 0.00 0.00 0.00 1012.1
20260507085658 0 0.0 0.0 0.00 0.00 0.00 1012.1
20260507085458 0 0.0 0.0 0.00 0.00 0.00 1012.1
20260507085358 0 0.0 0.0 0.00 0.00 0.00 1012.1
20260507085159 0 0.0 0.0 0.00 0.00 0.00 1012.2
20260507085001 0 0.0 0.0 0.00 0.00 0.00 1012.2
20260507084759 0 0.0 0.0 0.00 0.00 0.00 1012.2
20260507084657 0 0.0 0.0 0.00 0.00 0.00 1012.2
20260507084600 0 0.0 0.0 0.00 0.00 0.00 1012.1
20260507084500 0 0.0 0.0 0.00 0.00 0.00 1012.1
20260507084358 0 0.0 0.0 0.00 0.00 0.00 1012.2
20260507084259 0 0.0 0.0 0.00 0.00 0.00 1012.0
20260507084159 0 0.0 0.0 0.00 0.00 0.00 1012.1
20260507084057 0 0.0 0.0 0.00 0.00 0.00 1012.1
20260507084001 0 0.0 0.0 0.00 0.00 0.00 1012.1
20260507083857 0 0.0 0.0 0.00 0.00 0.00 1012.1
20260507083759 0 0.0 0.0 0.00 0.00 0.00 1012.1
20260507083558 0 0.0 0.0 0.00 0.00 0.00 1012.0
20260507083458 0 0.0 0.0 0.00 0.00 0.00 1012.0
20260507083400 0 0.0 0.0 0.00 0.00 0.00 1012.0
20260507083257 0 0.0 0.0 0.00 0.00 0.00 1011.9
20260507083200 0 0.0 0.0 0.00 0.00 0.00 1011.9
20260507083057 0 0.0 0.0 0.00 0.00 0.00 1011.9
20260507083001 0 0.0 0.0 0.00 0.00 0.00 1011.8
20260507082857 0 0.0 0.0 0.00 0.00 0.00 1011.7
20260507082800 0 0.0 0.0 0.00 0.00 0.00 1011.8
20260507082659 0 0.0 0.0 0.00 0.00 0.00 1011.7
20260507082558 0 0.0 0.0 0.00 0.00 0.00 1011.8
20260507082500 0 0.0 0.0 0.00 0.00 0.00 1011.7
20260507082358 0 0.0 0.0 0.00 0.00 0.00 1011.7
20260507082259 0 0.0 0.0 0.00 0.00 0.00 1011.7
20260507082059 0 0.0 0.0 0.00 0.00 0.00 1011.7
20260507081959 0 0.0 0.0 0.00 0.00 0.00 1011.7
20260507081857 0 0.0 0.0 0.00 0.00 0.00 1011.7
20260507081758 0 0.0 0.0 0.00 0.00 0.00 1011.7
20260507081659 0 0.0 0.0 0.00 0.00 0.00 1011.8
20260507081558 0 0.0 0.0 0.00 0.00 0.00 1011.8
20260507081459 0 0.0 0.0 0.00 0.00 0.00 1011.8
20260507081358 0 0.0 0.0 0.00 0.00 0.00 1011.9
20260507081259 0 0.0 0.0 0.00 0.00 0.00 1011.9
20260507081200 0 0.0 0.0 0.00 0.00 0.00 1011.9
20260507081001 0 0.0 0.0 0.00 0.00 0.00 1011.9
20260507080857 0 0.0 0.0 0.00 0.00 0.00 1011.9
20260507080657 0 0.0 0.0 0.00 0.00 0.00 1011.9
20260507080459 0 0.0 0.0 0.00 0.00 0.00 1012.0
20260507080358 0 0.0 0.0 0.00 0.00 0.00 1012.0
20260507080158 0 0.0 0.0 0.00 0.00 0.00 1012.0
20260507080057 0 0.0 0.0 0.00 0.00 0.00 1012.1
20260507080005 0 0.0 0.0 0.00 0.00 0.00 1012.1
20260507075859 0 0.0 0.0 0.00 0.00 0.00 1012.2
20260507075759 0 0.0 0.0 0.00 0.00 0.00 1012.2
20260507075600 0 0.0 0.0 0.00 0.00 0.00 1012.2
20260507075459 0 0.0 0.0 0.00 0.00 0.00 1012.3
20260507075259 0 0.0 0.0 0.00 0.00 0.00 1012.3
20260507075159 0 0.0 0.0 0.00 0.00 0.00 1012.3
20260507075059 0 0.0 0.0 0.00 0.00 0.00 1012.3
20260507075000 0 0.0 0.0 0.00 0.00 0.00 1012.3
20260507074859 0 0.0 0.0 0.00 0.00 0.00 1012.3
20260507074759 0 0.0 0.0 0.00 0.00 0.00 1012.4
20260507074659 0 0.0 0.0 0.00 0.00 0.00 1012.4
20260507074559 0 0.0 0.0 0.00 0.00 0.00 1012.4
20260507074400 0 0.0 0.0 0.00 0.00 0.00 1012.3
20260507074259 0 0.0 0.0 0.00 0.00 0.00 1012.3
20260507074159 0 0.0 0.0 0.00 0.00 0.00 1012.3
20260507074059 0 0.0 0.0 0.00 0.00 0.00 1012.3
20260507074001 0 0.0 0.0 0.00 0.00 0.00 1012.4
20260507073859 0 0.0 0.0 0.00 0.00 0.00 1012.3
20260507073759 0 0.0 0.0 0.00 0.00 0.00 1012.4
20260507073659 0 0.0 0.0 0.00 0.00 0.00 1012.4
20260507073559 0 0.0 0.0 0.00 0.00 0.00 1012.4
20260507073400 0 0.0 0.0 0.00 0.00 0.00 1012.4
20260507073259 0 0.0 0.0 0.00 0.00 0.00 1012.4
20260507073200 0 0.0 0.0 0.00 0.00 0.00 1012.4
20260507073000 0 0.0 0.0 0.00 0.00 0.00 1012.4
20260507072858 0 0.0 0.0 0.00 0.00 0.00 1012.4
20260507072759 0 0.0 0.0 0.00 0.00 0.00 1012.4
20260507072559 0 0.0 0.0 0.00 0.00 0.00 1012.5
20260507072459 0 0.0 0.0 0.00 0.00 0.00 1012.5
20260507072359 0 0.0 0.0 0.00 0.00 0.00 1012.6
20260507072258 0 0.0 0.0 0.00 0.00 0.00 1012.6
20260507072059 0 0.0 0.0 0.00 0.00 0.00 1012.7
20260507072001 0 0.0 0.0 0.00 0.00 0.00 1012.7
20260507071859 0 0.0 0.0 0.00 0.00 0.00 1012.7
20260507071759 0 0.0 0.0 0.00 0.00 0.00 1012.6
20260507071659 0 0.0 0.0 0.00 0.00 0.00 1012.6
20260507071559 0 0.0 0.0 0.00 0.00 0.00 1012.6
20260507071258 0 0.0 0.0 0.00 0.00 0.00 1012.5
20260507071159 0 0.0 0.0 0.00 0.00 0.00 1012.5
20260507071059 0 0.0 0.0 0.00 0.00 0.00 1012.5
20260507071000 0 0.0 0.0 0.00 0.00 0.00 1012.5
20260507070858 0 0.0 0.0 0.00 0.00 0.00 1012.4
20260507070659 0 0.0 0.0 0.00 0.00 0.00 1012.4
20260507070559 0 0.0 0.0 0.00 0.00 0.00 1012.3
20260507070500 0 0.0 0.0 0.00 0.00 0.00 1012.3
20260507070359 0 0.0 0.0 0.00 0.00 0.00 1012.3
20260507070259 0 0.0 0.0 0.00 0.00 0.00 1012.3
20260507070159 0 0.0 0.0 0.00 0.00 0.00 1012.4
20260507070058 0 0.0 0.0 0.00 0.00 0.00 1012.3
20260507065859 0 0.0 0.0 0.00 0.00 0.00 1012.3
20260507065801 0 0.0 0.0 0.00 0.00 0.00 1012.4
20260507065659 0 0.0 0.0 0.00 0.00 0.00 1012.4
20260507065559 0 0.0 0.0 0.00 0.00 0.00 1012.4
20260507065458 0 0.0 0.0 0.00 0.00 0.00 1012.4
20260507065359 0 0.0 0.0 0.00 0.00 0.00 1012.3
20260507065259 0 0.0 0.0 0.00 0.00 0.00 1012.3
20260507065159 0 0.0 0.0 0.00 0.00 0.00 1012.2
20260507065059 0 0.0 0.0 0.00 0.00 0.00 1012.2
20260507065000 0 0.0 0.0 0.00 0.00 0.00 1012.1
20260507064859 0 0.0 0.0 0.00 0.00 0.00 1012.1
20260507064759 0 0.0 0.0 0.00 0.00 0.00 1012.1
20260507064659 0 0.0 0.0 0.00 0.00 0.00 1012.2
20260507064558 0 0.0 0.0 0.00 0.00 0.00 1012.2
20260507064459 0 0.0 0.0 0.00 0.00 0.00 1012.2
20260507064359 0 0.0 0.0 0.00 0.00 0.00 1012.3
20260507064258 0 0.0 0.0 0.00 0.00 0.00 1012.3
20260507064059 0 0.0 0.0 0.00 0.00 0.00 1012.4
20260507064000 0 0.0 0.0 0.00 0.00 0.00 1012.5
20260507063859 0 0.0 0.0 0.00 0.00 0.00 1012.5
20260507063759 0 0.0 0.0 0.00 0.00 0.00 1012.5
20260507063559 0 0.0 0.0 0.00 0.00 0.00 1012.5
20260507063459 0 0.0 0.0 0.00 0.00 0.00 1012.5
20260507063359 0 0.0 0.0 0.00 0.00 0.00 1012.5
20260507063259 0 0.0 0.0 0.00 0.00 0.00 1012.4
20260507063159 0 0.0 0.0 0.00 0.00 0.00 1012.4
20260507063058 0 0.0 0.0 0.00 0.00 0.00 1012.3
20260507063000 0 0.0 0.0 0.00 0.00 0.00 1012.3
20260507062759 0 0.0 0.0 0.00 0.00 0.00 1012.3
20260507062658 0 0.0 0.0 0.00 0.00 0.00 1012.3
20260507062459 0 0.0 0.0 0.00 0.00 0.00 1012.2
20260507062359 0 0.0 0.0 0.00 0.00 0.00 1012.2
20260507062258 0 0.0 0.0 0.00 0.00 0.00 1012.2
20260507062159 0 0.0 0.0 0.00 0.00 0.00 1012.3
20260507062059 0 0.0 0.0 0.00 0.00 0.00 1012.3
20260507062001 0 0.0 0.0 0.00 0.00 0.00 1012.3
20260507061858 0 0.0 0.0 0.00 0.00 0.00 1012.3
20260507061800 0 0.0 0.0 0.00 0.00 0.00 1012.3
20260507061600 0 0.0 0.0 0.00 0.00 0.00 1012.3
20260507061359 0 0.0 0.0 0.00 0.00 0.00 1012.3
20260507061259 0 0.0 0.0 0.00 0.00 0.00 1012.4
20260507061159 0 0.0 0.0 0.00 0.00 0.00 1012.4
20260507061000 0 0.0 0.0 0.00 0.00 0.00 1012.3
20260507060858 0 0.0 0.0 0.00 0.00 0.00 1012.2
20260507060759 0 0.0 0.0 0.00 0.00 0.00 1012.2
20260507060658 0 0.0 0.0 0.00 0.00 0.00 1012.2
20260507060559 0 0.0 0.0 0.00 0.00 0.00 1012.1
20260507060459 0 0.0 0.0 0.00 0.00 0.00 1012.1
20260507060359 0 0.0 0.0 0.00 0.00 0.00 1012.1
20260507060259 0 0.0 0.0 0.00 0.00 0.00 1012.1
20260507060159 0 0.0 0.0 0.00 0.00 0.00 1012.1
20260507055859 0 0.0 0.0 0.00 0.00 0.00 1012.1
20260507055759 0 0.0 0.0 0.00 0.00 0.00 1012.1
20260507055559 0 0.0 0.0 0.00 0.00 0.00 1012.1
20260507055459 0 0.0 0.0 0.00 0.00 0.00 1012.1
20260507055400 0 0.0 0.0 0.00 0.00 0.00 1012.1
20260507055259 0 0.0 0.0 0.00 0.00 0.00 1012.1
20260507055200 0 0.0 0.0 0.00 0.00 0.00 1012.0
20260507055059 0 0.0 0.0 0.00 0.00 0.00 1012.0
20260507055001 0 0.0 0.0 0.00 0.00 0.00 1012.0
20260507054859 0 0.0 0.0 0.00 0.00 0.00 1012.0
20260507054800 0 0.0 0.0 0.00 0.00 0.00 1011.9
20260507054659 0 0.0 0.0 0.00 0.00 0.00 1011.9
20260507054559 0 0.0 0.0 0.00 0.00 0.00 1011.9
20260507054359 0 0.0 0.0 0.00 0.00 0.00 1011.8
20260507054259 0 0.0 0.0 0.00 0.00 0.00 1011.8
20260507054159 0 0.0 0.0 0.00 0.00 0.00 1011.8
20260507054058 0 0.0 0.0 0.00 0.00 0.00 1011.7
20260507053859 0 0.0 0.0 0.00 0.00 0.00 1011.7
20260507053759 0 0.0 0.0 0.00 0.00 0.00 1011.7
20260507053659 0 0.0 0.0 0.00 0.00 0.00 1011.8
20260507053559 0 0.0 0.0 0.00 0.00 0.00 1011.7
20260507053459 0 0.0 0.0 0.00 0.00 0.00 1011.7
20260507053359 0 0.0 0.0 0.00 0.00 0.00 1011.7
20260507053259 0 0.0 0.0 0.00 0.00 0.00 1011.7
20260507053159 0 0.0 0.0 0.00 0.00 0.00 1011.7
20260507053059 0 0.0 0.0 0.00 0.00 0.00 1011.7
20260507053001 0 0.0 0.0 0.00 0.00 0.00 1011.8
20260507052900 0 0.0 0.0 0.00 0.00 0.00 1011.8
20260507052759 0 0.0 0.0 0.00 0.00 0.00 1011.9
20260507052659 0 0.0 0.0 0.00 0.00 0.00 1011.9
20260507052600 0 0.0 0.0 0.00 0.00 0.00 1012.0
20260507052500 0 0.0 0.0 0.00 0.00 0.00 1012.0
20260507052259 0 0.0 0.0 0.00 0.00 0.00 1012.0
20260507052159 0 0.0 0.0 0.00 0.00 0.00 1012.0
20260507052059 0 0.0 0.0 0.00 0.00 0.00 1012.0
20260507051859 0 0.0 0.0 0.00 0.00 0.00 1012.0
20260507051759 0 0.0 0.0 0.00 0.00 0.00 1012.0
20260507051659 0 0.0 0.0 0.00 0.00 0.00 1012.0
20260507051500 0 0.0 0.0 0.00 0.00 0.00 1011.9
20260507051359 0 0.0 0.0 0.00 0.00 0.00 1012.0
20260507051259 0 0.0 0.0 0.00 0.00 0.00 1011.9
20260507051159 0 0.0 0.0 0.00 0.00 0.00 1011.9
20260507051103 0 0.0 0.0 0.00 0.00 0.00 1011.9
20260507051000 0 0.0 0.0 0.00 0.00 0.00 1011.9
20260507050859 0 0.0 0.0 0.00 0.00 0.00 1011.8
20260507050800 0 0.0 0.0 0.00 0.00 0.00 1011.9
20260507050659 0 0.0 0.0 0.00 0.00 0.00 1011.8
20260507050559 0 0.0 0.0 0.00 0.00 0.00 1011.8
20260507050459 0 0.0 0.0 0.00 0.00 0.00 1011.8
20260507050359 0 0.0 0.0 0.00 0.00 0.00 1011.8
20260507050259 0 0.0 0.0 0.00 0.00 0.00 1011.8
20260507050159 0 0.0 0.0 0.00 0.00 0.00 1011.9
20260507050059 0 0.0 0.0 0.00 0.00 0.00 1011.9
20260507050006 0 0.0 0.0 0.00 0.00 0.00 1011.9
20260507045858 0 0.0 0.0 0.00 0.00 0.00 1011.8
20260507045759 0 0.0 0.0 0.00 0.00 0.00 1011.8
20260507045659 0 0.0 0.0 0.00 0.00 0.00 1011.8
20260507045559 0 0.0 0.0 0.00 0.00 0.00 1011.8
20260507045359 0 0.0 0.0 0.00 0.00 0.00 1011.7
20260507045258 0 0.0 0.0 0.00 0.00 0.00 1011.7
20260507045200 0 0.0 0.0 0.00 0.00 0.00 1011.8
20260507045058 0 0.0 0.0 0.00 0.00 0.00 1011.8
20260507045000 0 0.0 0.0 0.00 0.00 0.00 1011.7
20260507044859 0 0.0 0.0 0.00 0.00 0.00 1011.7
20260507044659 0 0.0 0.0 0.00 0.00 0.00 1011.8
20260507044600 0 0.0 0.0 0.00 0.00 0.00 1011.8
20260507044359 0 0.0 0.0 0.00 0.00 0.00 1011.7
20260507044259 0 0.0 0.0 0.00 0.00 0.00 1011.7
20260507044159 0 0.0 0.0 0.00 0.00 0.00 1011.7
20260507044059 0 0.0 0.0 0.00 0.00 0.00 1011.7
20260507044000 0 0.0 0.0 0.00 0.00 0.00 1011.7
20260507043859 0 0.0 0.0 0.00 0.00 0.00 1011.7
20260507043759 0 0.0 0.0 0.00 0.00 0.00 1011.7
20260507043659 0 0.0 0.0 0.00 0.00 0.00 1011.8
20260507043559 0 0.0 0.0 0.00 0.00 0.00 1011.8
20260507043459 0 0.0 0.0 0.00 0.00 0.00 1011.8
20260507043358 0 0.0 0.0 0.00 0.00 0.00 1011.8
20260507043258 0 0.0 0.0 0.00 0.00 0.00 1011.8
20260507043159 0 0.0 0.0 0.00 0.00 0.00 1011.8
20260507043058 0 0.0 0.0 0.00 0.00 0.00 1011.8
20260507043000 0 0.0 0.0 0.00 0.00 0.00 1011.8
20260507042858 0 0.0 0.0 0.00 0.00 0.00 1011.8
20260507042458 0 0.0 0.0 0.00 0.00 0.00 1011.9
20260507042400 0 0.0 0.0 0.00 0.00 0.00 1011.9
20260507042300 0 0.0 0.0 0.00 0.00 0.00 1011.9
20260507042200 0 0.0 0.0 0.00 0.00 0.00 1012.0
20260507042001 0 0.0 0.0 0.00 0.00 0.00 1011.9
20260507041858 0 0.0 0.0 0.00 0.00 0.00 1011.9
20260507041759 0 0.0 0.0 0.00 0.00 0.00 1011.9
20260507041659 0 0.0 0.0 0.00 0.00 0.00 1011.9
20260507041559 0 0.0 0.0 0.00 0.00 0.00 1011.9
20260507041459 0 0.0 0.0 0.00 0.00 0.00 1011.9
20260507041359 0 0.0 0.0 0.00 0.00 0.00 1011.9
20260507041259 0 0.0 0.0 0.00 0.00 0.00 1011.9
20260507041159 0 0.0 0.0 0.00 0.00 0.00 1011.9
20260507041059 0 0.0 0.0 0.00 0.00 0.00 1011.9
20260507041000 0 0.0 0.0 0.00 0.00 0.00 1011.9
20260507040858 0 0.0 0.0 0.00 0.00 0.00 1011.9
20260507040658 0 0.0 0.0 0.00 0.00 0.00 1012.1
20260507040559 0 0.0 0.0 0.00 0.00 0.00 1012.0
20260507040400 0 0.0 0.0 0.00 0.00 0.00 1012.1
20260507040259 0 0.0 0.0 0.00 0.00 0.00 1012.0
20260507040158 0 0.0 0.0 0.00 0.00 0.00 1011.9
20260507040000 0 0.0 0.0 0.00 0.00 0.00 1011.9
20260507035858 0 0.0 0.0 0.00 0.00 0.00 1011.9
20260507035801 0 0.0 0.0 0.00 0.00 0.00 1011.9
20260507035701 0 0.0 0.0 0.00 0.00 0.00 1011.8
20260507035601 0 0.0 0.0 0.00 0.00 0.00 1011.8
20260507035458 0 0.0 0.0 0.00 0.00 0.00 1011.8
20260507035358 0 0.0 0.0 0.00 0.00 0.00 1011.9
20260507035300 0 0.0 0.0 0.00 0.00 0.00 1011.9
20260507035158 0 0.0 0.0 0.00 0.00 0.00 1011.8
20260507035058 0 0.0 0.0 0.00 0.00 0.00 1011.8
20260507034858 0 0.0 0.0 0.00 0.00 0.00 1011.8
20260507034801 0 0.0 0.0 0.00 0.00 0.00 1011.8
20260507034659 0 0.0 0.0 0.00 0.00 0.00 1011.7
20260507034559 0 0.0 0.0 0.00 0.00 0.00 1011.6
20260507034401 0 0.0 0.0 0.00 0.00 0.00 1011.6
20260507034258 0 0.0 0.0 0.00 0.00 0.00 1011.5
20260507034002 0 0.0 0.0 0.00 0.00 0.00 1011.5
20260507033858 0 0.0 0.0 0.00 0.00 0.00 1011.5
20260507033801 0 0.0 0.0 0.00 0.00 0.00 1011.5
20260507033658 0 0.0 0.0 0.00 0.00 0.00 1011.5
20260507033601 0 0.0 0.0 0.00 0.00 0.00 1011.5
20260507033501 0 0.0 0.0 0.00 0.00 0.00 1011.4
20260507033359 0 0.0 0.0 0.00 0.00 0.00 1011.4
20260507033201 0 0.0 0.0 0.00 0.00 0.00 1011.4
20260507033058 0 0.0 0.0 0.00 0.00 0.00 1011.4
20260507033001 0 0.0 0.0 0.00 0.00 0.00 1011.4
20260507032859 0 0.0 0.0 0.00 0.00 0.00 1011.4
20260507032759 0 0.0 0.0 0.00 0.00 0.00 1011.3
20260507032659 0 0.0 0.0 0.00 0.00 0.00 1011.3
20260507032459 0 0.0 0.0 0.00 0.00 0.00 1011.2
20260507032359 0 0.0 0.0 0.00 0.00 0.00 1011.2
20260507032259 0 0.0 0.0 0.00 0.00 0.00 1011.2
20260507032001 0 0.0 0.0 0.00 0.00 0.00 1011.0
20260507031858 0 0.0 0.0 0.00 0.00 0.00 1011.0
20260507031759 0 0.0 0.0 0.00 0.00 0.00 1011.0
20260507031700 0 0.0 0.0 0.00 0.00 0.00 1011.0
20260507031559 0 0.0 0.0 0.00 0.00 0.00 1011.0
20260507031459 0 0.0 0.0 0.00 0.00 0.00 1011.0
20260507031359 0 0.0 0.0 0.00 0.00 0.00 1010.9
20260507031258 0 0.0 0.0 0.00 0.00 0.00 1010.9
20260507031002 0 0.0 0.0 0.00 0.00 0.00 1010.8
20260507030900 0 0.0 0.0 0.00 0.00 0.00 1010.8
20260507030801 0 0.0 0.0 0.00 0.00 0.00 1010.8
20260507030700 0 0.0 0.0 0.00 0.00 0.00 1010.8
20260507030500 0 0.0 0.0 0.00 0.00 0.00 1010.8
20260507030401 0 0.0 0.0 0.00 0.00 0.00 1010.8
20260507030300 0 0.0 0.0 0.00 0.00 0.00 1010.7
20260507030159 0 0.0 0.0 0.00 0.00 0.00 1010.6
20260507030100 0 0.0 0.0 0.00 0.00 0.00 1010.7
20260507025959 0 0.0 0.0 0.00 0.00 0.00 1010.6
20260507025859 0 0.0 0.0 0.00 0.00 0.00 1010.6
20260507025800 0 0.0 0.0 0.00 0.00 0.00 1010.6
20260507025657 0 0.0 0.0 0.00 0.00 0.00 1010.6
20260507025558 0 0.0 0.0 0.00 0.00 0.00 1010.6
20260507025358 0 0.0 0.0 0.00 0.00 0.00 1010.6
20260507025257 0 0.0 0.0 0.00 0.00 0.00 1010.6
20260507025158 0 0.0 0.0 0.00 0.00 0.00 1010.5
20260507025057 0 0.0 0.0 0.00 0.00 0.00 1010.5
20260507024959 0 0.0 0.0 0.00 0.00 0.00 1010.4
20260507024857 0 0.0 0.0 0.00 0.00 0.00 1010.4
20260507024657 0 0.0 0.0 0.00 0.00 0.00 1010.4
20260507024558 0 0.0 0.0 0.00 0.00 0.00 1010.3
20260507024458 0 0.0 0.0 0.00 0.00 0.00 1010.3
20260507024358 0 0.0 0.0 0.00 0.00 0.00 1010.2
20260507024158 0 0.0 0.0 0.00 0.00 0.00 1010.2
20260507024057 0 0.0 0.0 0.00 0.00 0.00 1010.1
20260507023959 0 0.0 0.0 0.00 0.00 0.00 1010.1
20260507023857 0 0.0 0.0 0.00 0.00 0.00 1010.1
20260507023758 0 0.0 0.0 0.00 0.00 0.00 1010.0
20260507023658 0 0.0 0.0 0.00 0.00 0.00 1010.0
20260507023558 0 0.0 0.0 0.00 0.00 0.00 1009.9
20260507023358 0 0.0 0.0 0.00 0.00 0.00 1009.9
20260507023257 0 0.0 0.0 0.00 0.00 0.00 1009.9
20260507023158 0 0.0 0.0 0.00 0.00 0.00 1009.9
20260507023058 0 0.0 0.0 0.00 0.00 0.00 1009.9
20260507022959 0 0.0 0.0 0.00 0.00 0.00 1009.9
20260507022857 0 0.0 0.0 0.00 0.00 0.00 1009.9
20260507022759 0 0.0 0.0 0.00 0.00 0.00 1009.9
20260507022657 0 0.0 0.0 0.00 0.00 0.00 1009.8
20260507022558 0 0.0 0.0 0.00 0.00 0.00 1009.8
20260507022458 0 0.0 0.0 0.00 0.00 0.00 1009.8
20260507022358 0 0.0 0.0 0.00 0.00 0.00 1009.8
20260507022257 0 0.0 0.0 0.00 0.00 0.00 1009.8
20260507022158 0 0.0 0.0 0.00 0.00 0.00 1009.8
20260507022057 0 0.0 0.0 0.00 0.00 0.00 1009.8
20260507021959 0 0.0 0.0 0.00 0.00 0.00 1009.7
20260507021859 0 0.0 0.0 0.00 0.00 0.00 1009.7
20260507021758 0 0.0 0.0 0.00 0.00 0.00 1009.7
20260507021659 0 0.0 0.0 0.00 0.00 0.00 1009.8
20260507021600 0 0.0 0.0 0.00 0.00 0.00 1009.8
20260507021457 0 0.0 0.0 0.00 0.00 0.00 1009.8
20260507021257 0 0.0 0.0 0.00 0.00 0.00 1009.7
20260507021200 0 0.0 0.0 0.00 0.00 0.00 1009.7
20260507021057 0 0.0 0.0 0.00 0.00 0.00 1009.7
20260507021001 0 0.0 0.0 0.00 0.00 0.00 1009.7
20260507020859 0 0.0 0.0 0.00 0.00 0.00 1009.7
20260507020758 0 0.0 0.0 0.00 0.00 0.00 1009.6
20260507020659 0 0.0 0.0 0.00 0.00 0.00 1009.7
20260507020558 0 0.0 0.0 0.00 0.00 0.00 1009.6
20260507020458 0 0.0 0.0 0.00 0.00 0.00 1009.6
20260507020358 0 0.0 0.0 0.00 0.00 0.00 1009.7
20260507020259 0 0.0 0.0 0.00 0.00 0.00 1009.6
20260507020200 0 0.0 0.0 0.00 0.00 0.00 1009.6
20260507020057 0 0.0 0.0 0.00 0.00 0.00 1009.7
20260507015959 0 0.0 0.0 0.00 0.00 0.00 1009.7
20260507015859 0 0.0 0.0 0.00 0.00 0.00 1009.5
20260507015757 0 0.0 0.0 0.00 0.00 0.00 1009.5
20260507015659 0 0.0 0.0 0.00 0.00 0.00 1009.5
20260507015557 0 0.0 0.0 0.00 0.00 0.00 1009.5
20260507015457 0 0.0 0.0 0.00 0.00 0.00 1009.5
20260507015357 0 0.0 0.0 0.00 0.00 0.00 1009.5
20260507015259 0 0.0 0.0 0.00 0.00 0.00 1009.5
20260507015200 0 0.0 0.0 0.00 0.00 0.00 1009.5
20260507015059 0 0.0 0.0 0.00 0.00 0.00 1009.5
20260507014959 0 0.0 0.0 0.00 0.00 0.00 1009.5
20260507014859 0 0.0 0.0 0.00 0.00 0.00 1009.4
20260507014758 0 0.0 0.0 0.00 0.00 0.00 1009.4
20260507014657 0 0.0 0.0 0.00 0.00 0.00 1009.3
20260507014600 0 0.0 0.0 0.00 0.00 0.00 1009.3
20260507014501 0 0.0 0.0 0.00 0.00 0.00 1009.3
20260507014257 0 0.0 0.0 0.00 0.00 0.00 1009.3
20260507014200 0 0.0 0.0 0.00 0.00 0.00 1009.3
20260507014057 0 0.0 0.0 0.00 0.00 0.00 1009.3
20260507014001 0 0.0 0.0 0.00 0.00 0.00 1009.2
20260507013859 0 0.0 0.0 0.00 0.00 0.00 1009.2
20260507013758 0 0.0 0.0 0.00 0.00 0.00 1009.2
20260507013657 0 0.0 0.0 0.00 0.00 0.00 1009.2
20260507013600 0 0.0 0.0 0.00 0.00 0.00 1009.2
20260507013457 0 0.0 0.0 0.00 0.00 0.00 1009.1
20260507013359 0 0.0 0.0 0.00 0.00 0.00 1009.1
20260507013259 0 0.0 0.0 0.00 0.00 0.00 1009.1
20260507013158 0 0.0 0.0 0.00 0.00 0.00 1009.1
20260507013057 0 0.0 0.0 0.00 0.00 0.00 1009.1
20260507012959 0 0.0 0.0 0.00 0.00 0.00 1009.0
20260507012857 0 0.0 0.0 0.00 0.00 0.00 1008.9
20260507012758 0 0.0 0.0 0.00 0.00 0.00 1008.9
20260507012557 0 0.0 0.0 0.00 0.00 0.00 1008.8
20260507012400 0 0.0 0.0 0.00 0.00 0.00 1008.9
20260507012158 0 0.0 0.0 0.00 0.00 0.00 1008.9
20260507012057 0 0.0 0.0 0.00 0.00 0.00 1008.8
20260507012002 0 0.0 0.0 0.00 0.00 0.00 1008.8
20260507011857 0 0.0 0.0 0.00 0.00 0.00 1008.7
20260507011656 0 0.0 0.0 0.00 0.00 0.00 1008.8
20260507011557 0 0.0 0.0 0.00 0.00 0.00 1008.8
20260507011457 0 0.0 0.0 0.00 0.00 0.00 1008.8
20260507011358 0 0.0 0.0 0.00 0.00 0.00 1008.8
20260507011257 0 0.0 0.0 0.00 0.00 0.00 1008.8
20260507011200 0 0.0 0.0 0.00 0.00 0.00 1008.7
20260507011059 0 0.0 0.0 0.00 0.00 0.00 1008.7
20260507011000 0 0.0 0.0 0.00 0.00 0.00 1008.7
20260507010859 0 0.0 0.0 0.00 0.00 0.00 1008.7
20260507010759 0 0.0 0.0 0.00 0.00 0.00 1008.7
20260507010658 0 0.0 0.0 0.00 0.00 0.00 1008.6
20260507010557 0 0.0 0.0 0.00 0.00 0.00 1008.6
20260507010459 0 0.0 0.0 0.00 0.00 0.00 1008.6
20260507010357 0 0.0 0.0 0.00 0.00 0.00 1008.6
20260507010159 0 0.0 0.0 0.00 0.00 0.00 1008.5
20260507010059 0 0.0 0.0 0.00 0.00 0.00 1008.5
20260507005858 0 0.0 0.0 0.00 0.00 0.00 1008.4
20260507005800 0 0.0 0.0 0.00 0.00 0.00 1008.5
20260507005500 0 0.0 0.0 0.00 0.00 0.00 1008.3
20260507005358 0 0.0 0.0 0.00 0.00 0.00 1008.3
20260507005058 0 0.0 0.0 0.00 0.00 0.00 1008.1
20260507005002 0 0.0 0.0 0.00 0.00 0.00 1008.1
20260507004858 0 0.0 0.0 0.00 0.00 0.00 1008.2
20260507004801 0 0.0 0.0 0.00 0.00 0.00 1008.2
20260507004658 0 0.0 0.0 0.00 0.00 0.00 1008.3